Flag for U.S.A. Weather past 2 weeks in McAllen, Texas, U.S.A.

57 °F

Low clouds.

Feels Like: 56 °F
Forecast: 58 / 64 °F
Wind: 6 mph from Northwest

Location: Miller International Airport

Current Time: Dec 1, 2015 at 12:32:14 AM

Latest Report: Nov 30, 2015 at 11:53 PM

Visibility: 10 mi

Pressure: 30.04 "Hg

Humidity: 90%

Dew point: 54 °F

Location of McAllenLocation

Historic Weather in McAllen — Graph


McAllen temperature yesterday

Maximum temperature yesterday: 59 °F (at 11:53 AM)
Minimum temperature yesterday: 54 °F (at 12:53 AM)
Average temperature yesterday: 57 °F

Past Weeks' High & Low Weather Summary

High87 °F (Nov 16, 12:53 PM)94% (Nov 20, 9:53 PM)30.35 "Hg (Nov 20, 9:53 PM)
Low45 °F (Nov 23, 4:53 AM)19% (Nov 18, 11:53 AM)29.59 "Hg (Nov 17, 6:53 AM)
Average69 °F72%30.02 "Hg
* Reported Nov 15 10:53 PM — Nov 30 10:53 PM, McAllen, Weather by CustomWeather, © 2015

Note: Actual official high and low records may vary slightly from our data, if they occured in-between our weather recording intervals... More about our weather records


McAllen weather history for previous 24 hours

Time TempWeatherWind HumidityBarometerVisibility
10:53 PM
Mon, Nov 30
58 °FOvercast.3 mph87%30.04 "Hg10 mi
9:53 PM58 °FMostly cloudy.12 mph90%30.06 "Hg7 mi
8:53 PM59 °FMostly cloudy.7 mph90%30.05 "Hg10 mi
7:53 PM59 °FMostly cloudy.5 mph90%30.04 "Hg7 mi
6:53 PM59 °FFog.7 mph90%30.03 "Hg3 mi
5:53 PM59 °FLow clouds.8 mph87%30.01 "Hg10 mi
4:53 PM59 °FLow clouds.7 mph87%30.00 "Hg9 mi
3:53 PM59 °FFog.9 mph87%29.99 "Hg5 mi
2:53 PM59 °FFog.9 mph87%29.98 "Hg4 mi
1:53 PM59 °FFog.8 mph87%29.97 "Hg4 mi
12:53 PM59 °FLow clouds.7 mph87%30.01 "Hg9 mi
11:53 AM59 °FLow clouds.7 mph84%30.03 "Hg9 mi
10:53 AM57 °FLow clouds.5 mph87%30.05 "Hg10 mi
9:53 AM56 °FFog.3 mph90%30.07 "Hg5 mi
8:53 AM56 °FMostly cloudy.5 mph87%30.05 "Hg10 mi
8:02 AM55 °FMostly cloudy.5 mph90%30.04 "Hg10 mi
6:53 AM55 °FLow clouds.6 mph87%30.03 "Hg10 mi
5:53 AM55 °FLow clouds.5 mph90%30.02 "Hg8 mi
4:53 AM55 °FFog.5 mph90%30.02 "Hg5 mi
3:53 AM54 °FFog.6 mph93%30.01 "Hg4 mi
2:53 AM54 °FMostly cloudy.5 mph93%30.02 "Hg7 mi
1:53 AM55 °FLow clouds.5 mph87%30.04 "Hg10 mi
12:53 AM54 °FLow clouds.5 mph90%30.06 "Hg10 mi
Weather by CustomWeather, © 2015

See weather overviewHow to use our weather pages